When you browse on this site, cookies collect data to enhance your experience and personalize the content and advertising you see.
Visit our Privacy Policy to learn more. By continuing to use the site, you agree to this use of cookies and data.
  • In United Kingdom
  • List of Countries
  • For 7 days
  • Water Temperature
  • Satellite Maps
  • Weather Map
  • Weather Widgets
  • user-avatar
    Login

    Hourly Weather Kapan

    Today, 18 December, Tuesday

    Time Temperature Precipitation Wind Pressure Humidity
    00:00 +5°C° 0.2 mm 1 mps 685 mmHg 85%
    01:00 +5°C° 0.4 mm 1 mps 685 mmHg 86%
    02:00 +5°C° 0.4 mm 1 mps 685 mmHg 86%
    03:00 +5°C° 0 mm 1 mps 685 mmHg 86%
    04:00 +5°C° 0.5 mm 1 mps 685 mmHg 86%
    05:00 +5°C° 0.5 mm 1 mps 685 mmHg 86%
    06:00 +4°C° 0.5 mm 0 mps 685 mmHg 86%
    07:00 +4°C° 0.3 mm 0 mps 686 mmHg 84%
    08:00 +5°C° 0.3 mm 0 mps 686 mmHg 82%
    09:00 +6°C° 0 mm 1 mps 686 mmHg 80%
    10:00 +7°C° 0.1 mm 1 mps 686 mmHg 77%
    11:00 +8°C° 0.1 mm 1 mps 686 mmHg 74%
    12:00 +7°C° 0.1 mm 2 mps 686 mmHg 72%
    13:00 +7°C° 0 mm 2 mps 686 mmHg 72%
    14:00 +7°C° 0 mm 2 mps 686 mmHg 73%
    15:00 +7°C° 0 mm 2 mps 686 mmHg 73%
    16:00 +7°C° 0.1 mm 2 mps 686 mmHg 77%
    17:00 +7°C° 0.1 mm 1 mps 687 mmHg 81%
    18:00 +6°C° 0.1 mm 1 mps 687 mmHg 84%
    19:00 +6°C° 0.1 mm 1 mps 687 mmHg 84%
    20:00 +6°C° 0.1 mm 1 mps 687 mmHg 84%
    21:00 +6°C° 0.1 mm 1 mps 688 mmHg 84%
    22:00 +5°C° 0.1 mm 1 mps 688 mmHg 84%
    23:00 +5°C° 0.1 mm 1 mps 688 mmHg 84%

    Tomorrow, 19 December, Wednesday

    Time Temperature Precipitation Wind Pressure Humidity
    00:00 +5°C° 0.1 mm 1 mps 688 mmHg 84%
    01:00 +5°C° 0 mm 1 mps 688 mmHg 84%
    02:00 +5°C° 0 mm 1 mps 688 mmHg 84%
    03:00 +5°C° 0 mm 1 mps 688 mmHg 84%
    04:00 +5°C° 0 mm 1 mps 688 mmHg 85%
    05:00 +4°C° 0 mm 1 mps 688 mmHg 85%
    06:00 +4°C° 0 mm 1 mps 689 mmHg 85%
    07:00 +5°C° 0 mm 1 mps 689 mmHg 82%
    08:00 +6°C° 0 mm 1 mps 689 mmHg 79%
    09:00 +7°C° 0 mm 1 mps 689 mmHg 76%
    10:00 +8°C° 0 mm 1 mps 689 mmHg 73%
    11:00 +8°C° 0 mm 1 mps 689 mmHg 71%
    12:00 +8°C° 0 mm 2 mps 689 mmHg 69%
    13:00 +8°C° 0 mm 2 mps 688 mmHg 69%
    14:00 +8°C° 0 mm 2 mps 688 mmHg 70%
    15:00 +8°C° 0 mm 2 mps 688 mmHg 71%
    16:00 +8°C° 0 mm 1 mps 688 mmHg 74%
    17:00 +7°C° 0 mm 1 mps 688 mmHg 78%
    18:00 +6°C° 0 mm 1 mps 688 mmHg 82%
    19:00 +5°C° 0 mm 1 mps 688 mmHg 82%
    20:00 +5°C° 0 mm 1 mps 688 mmHg 82%
    21:00 +5°C° 0 mm 1 mps 688 mmHg 81%
    22:00 +5°C° 0 mm 1 mps 688 mmHg 81%
    23:00 +5°C° 0 mm 1 mps 688 mmHg 81%

    Day after tomorrow, 20 December, Thursday

    Time Temperature Precipitation Wind Pressure Humidity
    00:00 +5°C° 0 mm 1 mps 687 mmHg 81%
    01:00 +5°C° 0 mm 1 mps 687 mmHg 80%
    02:00 +4°C° 0 mm 1 mps 687 mmHg 80%
    03:00 +4°C° 0 mm 1 mps 687 mmHg 80%
    04:00 +4°C° 0 mm 1 mps 687 mmHg 80%
    05:00 +4°C° 0 mm 1 mps 687 mmHg 80%
    06:00 +4°C° 0 mm 1 mps 687 mmHg 80%
    07:00 +5°C° 0 mm 1 mps 687 mmHg 78%
    08:00 +6°C° 0 mm 1 mps 687 mmHg 76%
    09:00 +6°C° 0 mm 1 mps 687 mmHg 74%
    10:00 +7°C° 0 mm 1 mps 687 mmHg 71%
    11:00 +8°C° 0 mm 1 mps 687 mmHg 69%
    12:00 +9°C° 0 mm 1 mps 686 mmHg 66%
    13:00 +9°C° 0 mm 1 mps 686 mmHg 67%
    14:00 +9°C° 0 mm 1 mps 685 mmHg 68%
    15:00 +9°C° 0 mm 1 mps 685 mmHg 70%
    16:00 +8°C° 0 mm 1 mps 685 mmHg 74%
    17:00 +7°C° 0 mm 1 mps 685 mmHg 79%
    18:00 +6°C° 0 mm 1 mps 685 mmHg 84%
    19:00 +6°C° 0.1 mm 1 mps 685 mmHg 84%
    20:00 +6°C° 0.1 mm 1 mps 685 mmHg 84%
    21:00 +5°C° 0.1 mm 1 mps 685 mmHg 84%
    22:00 +5°C° 0.2 mm 1 mps 685 mmHg 84%
    23:00 +5°C° 0.2 mm 1 mps 685 mmHg 84%

    21 December, Friday

    Time Temperature Precipitation Wind Pressure Humidity
    00:00 +5°C° 0.2 mm 1 mps 685 mmHg 84%
    01:00 +5°C° 0.3 mm 1 mps 685 mmHg 84%
    02:00 +4°C° 0.3 mm 0 mps 686 mmHg 85%
    03:00 +3°C° 0.3 mm 0 mps 686 mmHg 85%
    04:00 +3°C° 0.2 mm 0 mps 686 mmHg 84%
    05:00 +3°C° 0.2 mm 0 mps 686 mmHg 84%
    06:00 +3°C° 0.2 mm 0 mps 686 mmHg 83%
    07:00 +4°C° 0.2 mm 0 mps 687 mmHg 81%
    08:00 +4°C° 0.2 mm 0 mps 687 mmHg 79%
    09:00 +4°C° 0.2 mm 0 mps 688 mmHg 77%
    10:00 +5°C° 0.2 mm 0 mps 688 mmHg 75%
    11:00 +6°C° 0.2 mm 1 mps 688 mmHg 72%
    12:00 +7°C° 0.2 mm 1 mps 688 mmHg 70%
    13:00 +7°C° 0.1 mm 1 mps 687 mmHg 70%
    14:00 +7°C° 0.1 mm 1 mps 687 mmHg 70%
    15:00 +7°C° 0.1 mm 1 mps 687 mmHg 70%
    16:00 +6°C° 0.1 mm 1 mps 687 mmHg 74%
    17:00 +5°C° 0.1 mm 0 mps 687 mmHg 77%
    18:00 +4°C° 0.1 mm 0 mps 688 mmHg 81%
    19:00 +4°C° 0 mm 0 mps 688 mmHg 80%
    20:00 +3°C° 0 mm 0 mps 688 mmHg 80%
    21:00 +3°C° 0 mm 0 mps 688 mmHg 80%
    22:00 +3°C° 0 mm 0 mps 688 mmHg 79%
    23:00 +3°C° 0 mm 0 mps 688 mmHg 78%

    22 December, Saturday

    Time Temperature Precipitation Wind Pressure Humidity
    00:00 +3°C° 0 mm 1 mps 688 mmHg 77%
    01:00 +3°C° 0 mm 1 mps 687 mmHg 75%
    02:00 +3°C° 0 mm 1 mps 687 mmHg 73%
    03:00 +3°C° 0 mm 1 mps 687 mmHg 71%
    04:00 +3°C° 0 mm 1 mps 687 mmHg 71%
    05:00 +3°C° 0 mm 1 mps 687 mmHg 70%
    06:00 +3°C° 0 mm 1 mps 687 mmHg 69%
    07:00 +4°C° 0 mm 1 mps 687 mmHg 66%
    08:00 +4°C° 0 mm 1 mps 687 mmHg 63%
    09:00 +5°C° 0 mm 1 mps 687 mmHg 60%
    10:00 +6°C° 0 mm 1 mps 687 mmHg 58%
    11:00 +7°C° 0 mm 1 mps 686 mmHg 57%
    12:00 +8°C° 0 mm 1 mps 686 mmHg 55%
    13:00 +8°C° 0 mm 1 mps 685 mmHg 56%
    14:00 +7°C° 0 mm 2 mps 685 mmHg 57%
    15:00 +7°C° 0 mm 2 mps 685 mmHg 57%
    16:00 +7°C° 0 mm 1 mps 685 mmHg 62%
    17:00 +6°C° 0 mm 1 mps 685 mmHg 66%
    18:00 +5°C° 0 mm 1 mps 685 mmHg 71%
    19:00 +5°C° 0 mm 1 mps 685 mmHg 70%
    20:00 +5°C° 0 mm 1 mps 685 mmHg 69%
    21:00 +4°C° 0 mm 1 mps 685 mmHg 69%
    22:00 +4°C° 0 mm 1 mps 685 mmHg 70%
    23:00 +4°C° 0 mm 1 mps 685 mmHg 71%

    23 December, Sunday

    Time Temperature Precipitation Wind Pressure Humidity
    00:00 +4°C° 0 mm 1 mps 685 mmHg 72%
    01:00 +4°C° 0.1 mm 1 mps 685 mmHg 72%
    02:00 +4°C° 0.1 mm 1 mps 685 mmHg 73%
    03:00 +4°C° 0.1 mm 1 mps 685 mmHg 74%
    04:00 +3°C° 0 mm 1 mps 685 mmHg 73%
    05:00 +3°C° 0 mm 1 mps 685 mmHg 73%
    06:00 +3°C° 0 mm 1 mps 685 mmHg 73%
    07:00 +3°C° 0 mm 1 mps 685 mmHg 69%
    08:00 +3°C° 0 mm 2 mps 686 mmHg 65%
    09:00 +4°C° 0 mm 2 mps 686 mmHg 61%
    10:00 +5°C° 0 mm 2 mps 686 mmHg 57%
    11:00 +6°C° 0 mm 2 mps 686 mmHg 54%
    12:00 +7°C° 0 mm 2 mps 686 mmHg 50%
    13:00 +7°C° 0 mm 2 mps 685 mmHg 50%
    14:00 +7°C° 0 mm 2 mps 685 mmHg 49%
    15:00 +7°C° 0 mm 2 mps 685 mmHg 49%
    16:00 +5°C° 0 mm 2 mps 685 mmHg 53%
    17:00 +4°C° 0 mm 2 mps 685 mmHg 57%
    18:00 +4°C° 0 mm 1 mps 686 mmHg 61%
    19:00 +2°C° 0 mm 2 mps 686 mmHg 61%
    20:00 +2°C° 0 mm 2 mps 686 mmHg 60%
    21:00 +2°C° 0 mm 2 mps 686 mmHg 60%
    22:00 +2°C° 0 mm 2 mps 686 mmHg 59%
    23:00 +2°C° 0 mm 2 mps 686 mmHg 58%
    Show more